SRV51Z GVAC-GOOY

Flight info

Callsign SRV51Z
Flight time N/A
Altitude 33000
Route IRPOT1A POLMO DCT LUMPO UR976 ANITI
Aircraft E195/M-SDE3GILORVW/S

Departure

Time N/A
Airport Amílcar Cabral International Airport (GVAC)

Arrival

Time 2026-05-06 11:34
Airport Léopold Sédar Senghor International Airport (GOOY)
Time Latitude Longitude Altitude Speed Heading
2026-05-06 11:34 14.74119 -17.48977 72 ft 0 kts 284°
2026-05-06 11:41 14.74122 -17.48983 65 ft 4 kts 297°
2026-05-06 11:41 14.74147 -17.48984 69 ft 3 kts 59°
2026-05-06 11:41 14.74147 -17.48971 70 ft 1 kts 106°
2026-05-06 11:41 14.74142 -17.48954 71 ft 4 kts 105°
2026-05-06 11:42 14.74133 -17.48922 68 ft 7 kts 106°
2026-05-06 11:42 14.74110 -17.48839 74 ft 16 kts 106°
2026-05-06 11:42 14.74081 -17.48738 75 ft 13 kts 106°
2026-05-06 11:42 14.74121 -17.48684 76 ft 10 kts 20°
2026-05-06 11:43 14.74190 -17.48662 75 ft 10 kts 16°
2026-05-06 11:43 14.74254 -17.48642 72 ft 9 kts 17°
2026-05-06 11:43 14.74272 -17.48588 76 ft 9 kts 105°
2026-05-06 11:44 14.74281 -17.48469 72 ft 8 kts 78°
2026-05-06 11:44 14.74294 -17.48398 77 ft 12 kts 80°
2026-05-06 11:44 14.74312 -17.48306 74 ft 15 kts 79°
2026-05-06 11:44 14.74336 -17.48180 78 ft 20 kts 79°
2026-05-06 11:45 14.74299 -17.48058 78 ft 17 kts 111°
2026-05-06 11:45 14.74257 -17.47950 75 ft 15 kts 113°
2026-05-06 11:45 14.74168 -17.47903 78 ft 17 kts 173°
2026-05-06 11:45 14.74029 -17.47885 79 ft 24 kts 173°
2026-05-06 11:46 14.73851 -17.47860 81 ft 26 kts 172°
2026-05-06 11:46 14.73676 -17.47837 81 ft 25 kts 173°
2026-05-06 11:46 14.73495 -17.47814 84 ft 26 kts 173°
2026-05-06 11:46 14.73306 -17.47788 85 ft 31 kts 173°
2026-05-06 11:47 14.73099 -17.47760 86 ft 29 kts 173°
2026-05-06 11:47 14.72898 -17.47733 87 ft 30 kts 173°
2026-05-06 11:47 14.72740 -17.47703 88 ft 16 kts 151°
2026-05-06 11:47 14.72655 -17.47663 89 ft 8 kts 184°
2026-05-06 11:48 14.72635 -17.47699 89 ft 5 kts 306°
2026-05-06 11:48 14.72675 -17.47702 90 ft 8 kts 351°
2026-05-06 11:48 14.72922 -17.47736 87 ft 86 kts 353°
2026-05-06 11:48 14.73799 -17.47854 88 ft 156 kts 351°
2026-05-06 11:49 14.74908 -17.47982 751 ft 158 kts 353°
2026-05-06 11:49 14.75987 -17.48132 1525 ft 161 kts 352°
2026-05-06 11:49 14.77177 -17.48321 1859 ft 186 kts 351°
2026-05-06 11:49 14.78556 -17.48548 2205 ft 214 kts 352°
2026-05-06 11:50 14.80116 -17.48798 2618 ft 239 kts 351°
2026-05-06 11:50 14.81851 -17.48798 2941 ft 262 kts 15°
2026-05-06 11:50 14.83301 -17.47701 3744 ft 265 kts 51°
2026-05-06 11:50 14.84044 -17.45945 4432 ft 275 kts 79°
2026-05-06 11:51 14.84031 -17.43964 5203 ft 276 kts 94°
2026-05-06 11:51 14.83858 -17.41986 6025 ft 277 kts 94°
2026-05-06 11:51 14.83788 -17.39987 6775 ft 279 kts 91°
2026-05-06 11:51 14.83774 -17.38003 7565 ft 281 kts 91°
2026-05-06 11:52 14.83728 -17.35979 8418 ft 283 kts 93°
2026-05-06 11:52 14.83660 -17.33940 9290 ft 285 kts 94°
2026-05-06 11:52 14.83602 -17.31882 10052 ft 289 kts 92°
2026-05-06 11:52 14.83549 -17.29746 10350 ft 308 kts 93°
2026-05-06 11:53 14.83484 -17.27422 10372 ft 335 kts 93°
2026-05-06 11:53 14.83416 -17.24934 10516 ft 354 kts 93°
2026-05-06 11:53 14.83350 -17.22391 11157 ft 354 kts 93°
2026-05-06 11:53 14.83282 -17.19862 11661 ft 360 kts 93°
2026-05-06 11:54 14.83209 -17.17265 12205 ft 363 kts 93°
2026-05-06 11:54 14.83136 -17.14640 12738 ft 368 kts 93°
2026-05-06 11:54 14.83064 -17.11984 13267 ft 372 kts 93°
2026-05-06 11:54 14.82990 -17.09303 13798 ft 375 kts 93°
2026-05-06 11:55 14.82914 -17.06589 14270 ft 379 kts 93°
2026-05-06 11:55 14.82837 -17.03859 14747 ft 382 kts 93°
2026-05-06 11:55 14.82760 -17.01104 15193 ft 386 kts 93°
2026-05-06 11:55 14.82682 -16.98314 15662 ft 389 kts 93°
2026-05-06 11:56 14.82603 -16.95503 16135 ft 393 kts 93°
2026-05-06 11:56 14.82522 -16.92668 16619 ft 397 kts 93°
2026-05-06 11:56 14.82439 -16.89800 17111 ft 401 kts 93°
2026-05-06 11:56 14.82356 -16.86904 17616 ft 405 kts 93°
2026-05-06 11:57 14.82272 -16.83987 18123 ft 408 kts 93°
2026-05-06 11:57 14.82187 -16.81039 18583 ft 412 kts 93°
2026-05-06 11:57 14.82100 -16.78068 19018 ft 415 kts 93°
2026-05-06 11:57 14.82012 -16.75076 19458 ft 419 kts 93°
2026-05-06 11:58 14.81923 -16.72053 19893 ft 422 kts 93°
2026-05-06 11:58 14.81834 -16.69005 20329 ft 426 kts 93°
2026-05-06 11:58 14.81744 -16.65966 20771 ft 430 kts 93°
2026-05-06 11:58 14.81652 -16.62865 21213 ft 434 kts 93°
2026-05-06 11:59 14.81559 -16.59734 21663 ft 438 kts 93°
2026-05-06 11:59 14.81464 -16.56568 22123 ft 442 kts 93°
2026-05-06 11:59 14.81368 -16.53377 22578 ft 446 kts 93°
2026-05-06 11:59 14.81271 -16.50152 23040 ft 451 kts 94°
2026-05-06 12:00 14.81172 -16.46902 23505 ft 455 kts 94°
2026-05-06 12:00 14.81071 -16.43618 23901 ft 459 kts 94°
2026-05-06 12:00 14.80969 -16.40305 24280 ft 463 kts 94°
2026-05-06 12:00 14.80867 -16.36963 24664 ft 467 kts 94°
2026-05-06 12:01 14.80762 -16.33594 25047 ft 471 kts 94°
2026-05-06 12:01 14.80656 -16.30187 25430 ft 475 kts 94°
2026-05-06 12:01 14.80548 -16.26750 25808 ft 479 kts 94°
2026-05-06 12:01 14.80439 -16.23295 26167 ft 483 kts 94°
2026-05-06 12:02 14.80328 -16.19805 26508 ft 487 kts 94°
2026-05-06 12:02 14.80216 -16.16298 26834 ft 490 kts 94°
2026-05-06 12:02 14.80103 -16.12761 27139 ft 494 kts 95°
2026-05-06 12:02 14.79988 -16.09205 27434 ft 497 kts 95°
2026-05-06 12:03 14.79874 -16.05671 27714 ft 499 kts 95°
2026-05-06 12:03 14.79757 -16.02075 27974 ft 502 kts 95°
2026-05-06 12:03 14.79640 -15.98454 28243 ft 505 kts 95°
2026-05-06 12:03 14.79522 -15.94820 28504 ft 507 kts 95°
2026-05-06 12:04 14.79401 -15.91165 28769 ft 510 kts 95°
2026-05-06 12:04 14.79280 -15.87490 29028 ft 512 kts 95°
2026-05-06 12:04 14.79158 -15.83798 29273 ft 515 kts 95°
2026-05-06 12:04 14.79035 -15.80091 29527 ft 517 kts 95°
2026-05-06 12:05 14.78910 -15.76371 29779 ft 519 kts 95°
2026-05-06 12:05 14.78784 -15.72634 30017 ft 521 kts 95°
2026-05-06 12:05 14.78658 -15.68890 30244 ft 523 kts 95°
2026-05-06 12:05 14.78531 -15.65125 30478 ft 524 kts 95°
2026-05-06 12:06 14.78402 -15.61354 30705 ft 526 kts 95°
2026-05-06 12:06 14.78273 -15.57574 30956 ft 526 kts 95°
2026-05-06 12:06 14.78146 -15.53851 31362 ft 523 kts 95°
2026-05-06 12:06 14.78017 -15.50090 31712 ft 522 kts 95°
2026-05-06 12:07 14.77885 -15.46343 32050 ft 521 kts 96°
2026-05-06 12:07 14.77755 -15.42608 32404 ft 520 kts 96°
2026-05-06 12:07 14.77626 -15.38879 32778 ft 519 kts 96°
2026-05-06 12:07 14.77495 -15.35159 33157 ft 518 kts 96°
2026-05-06 12:08 14.77363 -15.31443 33546 ft 517 kts 96°
2026-05-06 12:08 14.77232 -15.27739 33952 ft 515 kts 96°
2026-05-06 12:08 14.77100 -15.24036 34276 ft 515 kts 96°
2026-05-06 12:08 14.76967 -15.20337 34572 ft 515 kts 96°
2026-05-06 12:09 14.76833 -15.16621 34883 ft 516 kts 96°
2026-05-06 12:09 14.76699 -15.12918 35200 ft 516 kts 96°
2026-05-06 12:09 14.76566 -15.09250 35508 ft 517 kts 96°
2026-05-06 12:09 14.76429 -15.05513 35827 ft 517 kts 95°
2026-05-06 12:10 14.76296 -15.01794 36153 ft 518 kts 95°
2026-05-06 12:10 14.76287 -14.98061 36443 ft 520 kts 92°
2026-05-06 12:10 14.76306 -14.94321 36782 ft 520 kts 92°
2026-05-06 12:10 14.76315 -14.90580 37116 ft 521 kts 92°
2026-05-06 12:11 14.76311 -14.86837 37456 ft 522 kts 92°
2026-05-06 12:11 14.76312 -14.83085 37803 ft 522 kts 92°
2026-05-06 12:11 14.76322 -14.79373 38145 ft 523 kts 92°
2026-05-06 12:11 14.76328 -14.75604 38493 ft 524 kts 92°
2026-05-06 12:12 14.76328 -14.71840 38809 ft 524 kts 92°
2026-05-06 12:12 14.76327 -14.68072 39179 ft 523 kts 92°
2026-05-06 12:12 14.76331 -14.64316 39563 ft 521 kts 92°
2026-05-06 12:12 14.76334 -14.60573 39943 ft 519 kts 92°
2026-05-06 12:13 14.76334 -14.56851 40317 ft 517 kts 92°
2026-05-06 12:13 14.76333 -14.53132 40692 ft 516 kts 92°
2026-05-06 12:13 14.76333 -14.49429 41073 ft 514 kts 92°
2026-05-06 12:13 14.76333 -14.45790 41449 ft 512 kts 92°
2026-05-06 12:14 14.76332 -14.42117 41818 ft 510 kts 92°
2026-05-06 12:14 14.76329 -14.38457 42173 ft 509 kts 92°
2026-05-06 12:14 14.76326 -14.34809 42512 ft 507 kts 92°
2026-05-06 12:14 14.76322 -14.31169 42836 ft 506 kts 92°
2026-05-06 12:15 14.76319 -14.27538 43152 ft 504 kts 92°
2026-05-06 12:15 14.76315 -14.23921 43460 ft 503 kts 92°
2026-05-06 12:15 14.76310 -14.20315 43751 ft 502 kts 92°
2026-05-06 12:15 14.76304 -14.16714 44030 ft 500 kts 92°
2026-05-06 12:16 14.76298 -14.13122 44306 ft 499 kts 92°
2026-05-06 12:16 14.76291 -14.09541 44578 ft 498 kts 92°
2026-05-06 12:16 14.76284 -14.05962 44773 ft 496 kts 92°
2026-05-06 12:16 14.76277 -14.02417 44921 ft 493 kts 92°
2026-05-06 12:17 14.76258 -13.95313 44912 ft 502 kts 92°
2026-05-06 12:17 14.76240 -13.88043 44926 ft 509 kts 92°
2026-05-06 12:18 14.76217 -13.80675 44924 ft 517 kts 92°
2026-05-06 12:18 14.76193 -13.73190 44928 ft 524 kts 92°
2026-05-06 12:19 14.76165 -13.65622 44927 ft 529 kts 92°
2026-05-06 12:19 14.76134 -13.58019 44923 ft 529 kts 92°
2026-05-06 12:20 14.76101 -13.50392 44922 ft 531 kts 93°
2026-05-06 12:20 14.76065 -13.42757 44917 ft 531 kts 93°
2026-05-06 12:21 14.76027 -13.35175 44914 ft 531 kts 93°
2026-05-06 12:21 14.75986 -13.27521 44913 ft 530 kts 93°
2026-05-06 12:22 14.75943 -13.19904 44910 ft 530 kts 93°
2026-05-06 12:22 14.75898 -13.12288 44910 ft 530 kts 93°
2026-05-06 12:23 14.75850 -13.04727 44905 ft 530 kts 93°
2026-05-06 12:23 14.75800 -12.97107 44903 ft 530 kts 93°
2026-05-06 12:24 14.75747 -12.89490 44897 ft 529 kts 93°
2026-05-06 12:24 14.75691 -12.81880 44891 ft 529 kts 93°
2026-05-06 12:25 14.75643 -12.75557 44891 ft 529 kts 93°
2026-05-06 12:25 14.75583 -12.67958 44886 ft 529 kts 93°
2026-05-06 12:26 14.75520 -12.60346 44887 ft 529 kts 93°
2026-05-06 12:26 14.75456 -12.52782 44886 ft 529 kts 93°
2026-05-06 12:27 14.75388 -12.45175 44880 ft 529 kts 93°
2026-05-06 12:27 14.75318 -12.37571 44878 ft 528 kts 93°
2026-05-06 12:28 14.75244 -12.29981 44874 ft 528 kts 93°
2026-05-06 12:28 14.75168 -12.22389 44868 ft 528 kts 93°
2026-05-06 12:29 14.75089 -12.14853 44867 ft 527 kts 93°
2026-05-06 12:29 14.75009 -12.07270 44865 ft 527 kts 93°
2026-05-06 12:30 14.74925 -11.99691 44864 ft 528 kts 93°
2026-05-06 12:30 14.74839 -11.92092 44864 ft 528 kts 93°
2026-05-06 12:31 14.74753 -11.84552 44861 ft 528 kts 93°
2026-05-06 12:31 14.74663 -11.76971 44861 ft 528 kts 93°
2026-05-06 12:32 14.74570 -11.69360 44863 ft 528 kts 93°
2026-05-06 12:32 14.74476 -11.61779 44860 ft 528 kts 93°
2026-05-06 12:33 14.74378 -11.54194 44863 ft 528 kts 93°
2026-05-06 12:33 14.74280 -11.46654 44865 ft 528 kts 93°
2026-05-06 12:34 14.74177 -11.39070 44860 ft 528 kts 93°
2026-05-06 12:34 14.74073 -11.31489 44858 ft 528 kts 93°
2026-05-06 12:35 14.73966 -11.23907 44855 ft 528 kts 93°
2026-05-06 12:35 14.73856 -11.16311 44842 ft 528 kts 93°
2026-05-06 12:36 14.73744 -11.08725 44846 ft 528 kts 93°
2026-05-06 12:36 14.73630 -11.01180 44846 ft 528 kts 94°
2026-05-06 12:37 14.73512 -10.93586 44846 ft 529 kts 94°
2026-05-06 12:37 14.73390 -10.85972 44849 ft 529 kts 94°
2026-05-06 12:38 14.73267 -10.78367 44848 ft 530 kts 94°
2026-05-06 12:38 14.73140 -10.70747 44848 ft 530 kts 94°
2026-05-06 12:39 14.73012 -10.63167 44848 ft 531 kts 93°
2026-05-06 12:39 14.72880 -10.55513 44852 ft 533 kts 93°
2026-05-06 12:40 14.72744 -10.47842 44855 ft 534 kts 93°
2026-05-06 12:40 14.72608 -10.40207 44856 ft 534 kts 93°
2026-05-06 12:41 14.72468 -10.32531 44849 ft 535 kts 93°
2026-05-06 12:41 14.72325 -10.24841 44844 ft 536 kts 93°
2026-05-06 12:42 14.72179 -10.17136 44845 ft 536 kts 93°
2026-05-06 12:42 14.72031 -10.09426 44838 ft 536 kts 93°
2026-05-06 12:43 14.71880 -10.01712 44842 ft 537 kts 93°
2026-05-06 12:43 14.71726 -9.93983 44830 ft 538 kts 93°
2026-05-06 12:44 14.71570 -9.86296 44831 ft 539 kts 93°
2026-05-06 12:44 14.71411 -9.78552 44833 ft 540 kts 93°
2026-05-06 12:45 14.71249 -9.70782 44827 ft 540 kts 93°
2026-05-06 12:46 14.71000 -9.59125 44823 ft 541 kts 93°
2026-05-06 12:46 14.70834 -9.51352 44820 ft 541 kts 93°
2026-05-06 12:47 14.70671 -9.43637 44821 ft 541 kts 93°
2026-05-06 12:47 14.70500 -9.35877 44820 ft 540 kts 93°
2026-05-06 12:48 14.70329 -9.28091 44822 ft 540 kts 93°
2026-05-06 12:48 14.70154 -9.20336 44817 ft 540 kts 93°
2026-05-06 12:49 14.69979 -9.12587 44816 ft 539 kts 93°
2026-05-06 12:49 14.69799 -9.04849 44808 ft 538 kts 92°
2026-05-06 12:50 14.69620 -8.97176 44808 ft 537 kts 92°
2026-05-06 12:50 14.69437 -8.89464 44808 ft 536 kts 92°
2026-05-06 12:51 14.69251 -8.81759 44807 ft 536 kts 92°
2026-05-06 12:51 14.69054 -8.74074 44804 ft 535 kts 92°
2026-05-06 12:52 14.68859 -8.66403 44800 ft 533 kts 92°
2026-05-06 12:52 14.68660 -8.58752 44796 ft 532 kts 92°
2026-05-06 12:53 14.68459 -8.51109 44794 ft 531 kts 92°
2026-05-06 12:53 14.68258 -8.43542 44786 ft 530 kts 92°
2026-05-06 12:54 14.68053 -8.35937 44792 ft 529 kts 92°
2026-05-06 12:54 14.67846 -8.28337 44792 ft 529 kts 92°
2026-05-06 12:55 14.67637 -8.20749 44790 ft 528 kts 92°
2026-05-06 12:55 14.67426 -8.13161 44785 ft 528 kts 92°
2026-05-06 12:56 14.67212 -8.05583 44783 ft 527 kts 92°
2026-05-06 12:56 14.67002 -7.98058 44775 ft 527 kts 92°
2026-05-06 12:57 14.66787 -7.90491 44779 ft 526 kts 92°
2026-05-06 12:57 14.66570 -7.82932 44776 ft 526 kts 92°
2026-05-06 12:58 14.66350 -7.75369 44773 ft 526 kts 92°
2026-05-06 12:58 14.66128 -7.67811 44770 ft 526 kts 92°
2026-05-06 12:59 14.65903 -7.60234 44774 ft 527 kts 92°
2026-05-06 12:59 14.65677 -7.52713 44773 ft 527 kts 92°
2026-05-06 13:00 14.65447 -7.45142 44769 ft 527 kts 92°
2026-05-06 13:00 14.65214 -7.37558 44764 ft 527 kts 92°
2026-05-06 13:01 14.64980 -7.29991 44765 ft 527 kts 92°
2026-05-06 13:01 14.64743 -7.22415 44766 ft 528 kts 92°
2026-05-06 13:02 14.64503 -7.14845 44769 ft 528 kts 92°
2026-05-06 13:02 14.64261 -7.07270 44765 ft 527 kts 92°
2026-05-06 13:03 14.64017 -6.99702 44761 ft 528 kts 92°
2026-05-06 13:03 14.63768 -6.92131 44761 ft 527 kts 92°
2026-05-06 13:04 14.63517 -6.84552 44757 ft 528 kts 92°
2026-05-06 13:04 14.63263 -6.76979 44747 ft 528 kts 92°
2026-05-06 13:05 14.63007 -6.69398 44756 ft 528 kts 92°
2026-05-06 13:05 14.62749 -6.61834 44753 ft 527 kts 92°
2026-05-06 13:06 14.62489 -6.54274 44744 ft 526 kts 92°
2026-05-06 13:06 14.62228 -6.46771 44745 ft 526 kts 92°
2026-05-06 13:07 14.61964 -6.39229 44745 ft 526 kts 92°
2026-05-06 13:07 14.61697 -6.31686 44745 ft 526 kts 92°
2026-05-06 13:08 14.61427 -6.24137 44741 ft 525 kts 92°
2026-05-06 13:08 14.61155 -6.16590 44739 ft 525 kts 92°
2026-05-06 13:09 14.60881 -6.09059 44741 ft 525 kts 92°
2026-05-06 13:09 14.60606 -6.01568 44742 ft 524 kts 93°
2026-05-06 13:10 14.60328 -5.94038 44741 ft 524 kts 93°
2026-05-06 13:10 14.60047 -5.86513 44740 ft 524 kts 93°
2026-05-06 13:11 14.59763 -5.78988 44746 ft 524 kts 93°
2026-05-06 13:11 14.59478 -5.71480 44747 ft 523 kts 93°
2026-05-06 13:12 14.59191 -5.63977 44745 ft 523 kts 93°
2026-05-06 13:12 14.58950 -5.57738 44740 ft 523 kts 93°
2026-05-06 13:13 14.58611 -5.49029 44743 ft 522 kts 93°
2026-05-06 13:13 14.58365 -5.42747 44742 ft 522 kts 93°
2026-05-06 13:14 14.58071 -5.35303 44740 ft 522 kts 93°
2026-05-06 13:14 14.57772 -5.27815 44744 ft 522 kts 93°
2026-05-06 13:15 14.57471 -5.20324 44741 ft 521 kts 93°